Location: Stamford Observatory
(41.1241°N, 73.5498°W)
Time: 01:20:29
(UTC-04:00)

Daily predictions for brighter satellites

Satellite Brightness Start Highest point End
(mag) Time Altitude Azimuth Time Altitude Azimuth Time Altitude Azimuth
Terra 4.3 00:05:46 16° WNW 00:05:46 16° WNW 00:07:23 10° NW
COSMOS 2428 4.3 00:05:01 26° WNW 00:05:51 27° NW 00:10:41 10° N
NOSS 3-1 (A) 4.2 00:10:33 47° NNE 00:10:33 47° NNE 00:15:14 10° NNE
ATLAS 2AS CENTAUR R/B 4.3 00:13:05 28° ENE 00:13:05 28° ENE 00:17:26 10° NE
SL-16 R/B 3.7 00:33:20 31° NNE 00:33:20 31° NNE 00:36:15 10° NNE
Cosmos 2333 Rocket 3.8 00:46:51 28° NW 00:46:51 28° NW 00:51:26 10° N
CZ-4C R/B 3.5 00:39:41 10° NW 00:44:55 48° WNW 00:44:55 48° WNW
ATLAS 3B R/B 3.6 00:44:23 10° NNW 00:50:47 39° NE 00:51:14 39° NE
Cosmos 2237 Rocket 3.8 00:56:36 30° NW 00:56:36 30° NW 01:00:46 10° N
Cosmos 2278 Rocket 4.3 00:54:23 10° NW 00:56:09 18° WNW 00:56:09 18° WNW
CZ-2C R/B 4.2 01:14:06 10° N 01:17:28 30° NW 01:17:28 30° NW
USA 215 3.8 01:16:41 10° NE 01:21:27 52° ENE 01:21:27 52° ENE
USA 267 4.1 01:49:11 10° ESE 01:55:23 47° NNE 02:01:35 10° NW
Cosmos 2341 Rocket 4.5 01:51:37 10° N 01:56:23 55° NNW 01:56:23 55° NNW
ATLAS CENTAUR R/B 4.1 02:00:34 15° N 02:00:34 15° N 02:01:45 10° N
Cosmos 2369 Rocket 3.1 01:53:03 10° NNW 01:56:56 43° N 01:56:56 43° N
ATLAS 2AS CENTAUR R/B 3.2 02:00:28 58° WNW 02:01:04 59° NW 02:09:06 10° NNE
SL-16 R/B 4.2 02:15:11 18° NW 02:15:18 18° NW 02:19:10 10° N
Resurs 1-4 Rocket 4.1 02:13:01 10° NE 02:16:43 19° E 02:16:58 19° E
CZ-2D R/B 4.0 02:16:02 10° NE 02:19:53 20° E 02:20:13 20° E
Cosmos 1943 Rocket 2.7 02:19:51 10° NNW 02:25:05 57° NE 02:25:05 57° NE
BREEZE M DEB (TANK) 4.3 02:05:56 10° WNW 02:28:15 83° SW 02:30:16 53° SE
Cosmos 1809 Rocket 4.5 02:27:22 10° N 02:33:11 75° NE 02:33:11 75° NE
Cosmos 44 Rocket 4.5 02:31:41 10° NNW 02:35:03 38° NNE 02:35:03 38° NNE
ATLAS 3B R/B 3.9 02:35:12 10° NW 02:38:26 27° WNW 02:38:26 27° WNW
SL-16 R/B 3.0 02:49:25 35° SE 02:51:48 55° ENE 02:57:49 10° N
Aureole 1 Rocket 3.9 02:52:29 57° E 02:52:29 57° E 02:56:42 10° NNE
Cosmos 1680 Rocket 3.9 02:53:52 55° E 02:53:52 55° E 02:58:45 10° NNE
CBERS-1 4.2 02:48:31 10° NNE 02:52:55 67° NNE 02:52:55 67° NNE
USA 238 DEB 4.3 02:47:04 10° NW 02:52:03 42° WNW 02:52:03 42° WNW
USA 238 4.3 02:47:10 10° NW 02:52:12 43° WNW 02:52:12 43° WNW
IRS-1C 4.2 02:50:20 10° NNE 02:55:27 72° ENE 02:55:27 72° ENE
Cosmos 2218 Rocket 4.4 02:56:47 10° NNW 03:02:00 48° WNW 03:02:00 48° WNW
IRS-1D 4.0 02:58:35 10° NNE 03:03:40 52° E 03:04:07 50° ESE
USA 215 4.3 03:00:01 10° NE 03:05:53 37° NNW 03:08:48 25° WNW
Cosmos 2366 rocket 4.3 03:03:23 10° NNW 03:09:00 50° WNW 03:09:00 50° WNW
Cosmos 1656 Rocket 4.0 03:06:41 10° NNW 03:12:04 61° ENE 03:14:45 29° SE
Cosmos 1943 4.2 03:12:41 32° WNW 03:12:45 32° WNW 03:17:48 10° N
GEOS 3 Rocket 3.5 03:07:58 10° NE 03:13:18 88° NW 03:13:30 83° SW
Cosmos 1626 Rocket 4.3 03:15:42 46° NNW 03:15:42 46° NNW 03:18:57 10° N
Lacrosse 5 rocket 3.6 03:14:44 18° ESE 03:14:49 18° ESE 03:18:00 10° ENE
UNK 3.8 03:16:45 75° NE 03:16:45 75° NE 03:21:08 10° N
SL-27 R/B 4.4 03:19:08 27° E 03:19:08 27° E 03:21:41 10° NE
ARIANE 5 R/B 2.7 03:13:46 10° NNE 03:19:00 68° ESE 03:19:42 60° SSE
COSMOS 2455 3.1 03:13:39 10° NNW 03:19:40 68° ENE 03:25:38 10° SE
Meteor 2-14 Rocket 4.4 03:15:43 10° NNW 03:21:45 60° W 03:21:59 59° WSW
Meteor 2-16 Rocket 4.3 03:17:25 10° NNW 03:23:28 66° W 03:24:01 63° SW
Genesis I 4.3 03:19:48 10° NNW 03:23:37 45° NE 03:25:24 26° ESE
Cosmos 1825 Rocket 4.2 03:24:03 46° ESE 03:24:34 49° E 03:28:50 10° NNE
NOSS 3-2 (C) 3.9 03:17:47 10° NW 03:25:23 82° WSW 03:33:33 10° SSE
Cosmos 923 Rocket 4.2 03:26:00 57° WNW 03:26:05 58° WNW 03:31:23 10° NNE
RESURS DK-1 2.7 03:28:13 62° ENE 03:28:13 62° ENE 03:31:55 10° NNE
Okean O Rocket 4.5 03:28:01 10° ENE 03:29:23 11° E 03:30:43 10° ESE
Cosmos 44 4.5 03:29:15 10° NW 03:31:14 26° NW 03:31:14 26° NW
Cosmos 1602 Rocket 4.5 03:35:29 37° NW 03:35:29 37° NW 03:38:52 10° N
Cosmos 1805 3.6 03:30:49 10° N 03:34:43 61° E 03:34:50 61° E
USA 267 3.2 03:31:52 10° SSE 03:38:16 57° SW 03:44:43 10° NW
Cosmos 1271 Rocket 3.4 03:35:16 10° N 03:38:56 49° ENE 03:39:35 43° ESE
Cosmos 2369 Rocket 4.4 03:38:39 10° WNW 03:38:41 10° WNW 03:38:41 10° WNW
CENTAUR R/B 3.7 03:35:46 10° NNW 03:43:28 56° NE 03:51:42 10° SE
Cosmos 192 4.2 03:44:35 63° SW 03:45:21 82° WNW 03:50:19 10° NNE
COBE Rocket 3.8 03:41:19 10° N 03:46:26 85° WNW 03:47:36 54° SSW
Cosmos 1842 3.5 03:47:25 56° NW 03:47:25 56° NW 03:50:47 10° N
Cosmos 1766 4.5 03:43:53 10° NNW 03:46:22 31° NW 03:46:22 31° NW
Cosmos 724 4.3 03:42:41 10° NW 03:48:40 61° WSW 03:52:26 22° S
ADEOS Rocket 3.0 03:43:40 10° N 03:49:35 70° WNW 03:52:01 40° SW
Tiangong 1 2.6 03:50:41 31° ENE 03:50:41 31° ENE 03:52:24 10° E
NOSS 3-4 (A) 3.9 03:49:09 37° W 03:51:14 51° NW 03:57:35 10° NNE
NOSS 3-4 (C) 3.9 03:49:15 38° W 03:51:20 52° NW 03:57:42 10° NNE
NOSS 2-2 (D) 4.2 03:51:47 36° SSE 03:52:41 42° ESE 03:56:54 10° NE
Nadezhda 3 Rocket 4.3 03:53:26 40° WSW 03:54:57 47° WNW 04:01:03 10° N
Resurs 1-4 Rocket 2.3 03:51:44 10° N 03:56:50 53° WNW 03:58:03 43° WSW
Abrixas 4.1 03:59:32 27° N 03:59:32 27° N 04:01:46 10° NE
COSMOS 2406 3.3 03:57:45 42° SW 03:59:37 67° WNW 04:05:23 10° NNE
Cosmos 2098 Rocket 4.0 03:57:18 10° NNE 04:00:01 30° ENE 04:01:42 17° SE
CZ-2D R/B 2.4 03:55:06 10° N 04:00:14 50° WNW 04:01:33 41° WSW
Cosmos 1544 3.6 03:57:21 10° NNW 04:00:19 46° NW 04:00:19 46° NW
MOZ.5/SAFIR/RUBIN 5/SL-8 3.7 03:59:03 24° SSE 04:01:52 90° ENE 04:06:34 10° NNW
NOSS 3-2 (A) 4.4 04:00:30 10° NW 04:07:26 38° WSW 04:14:46 10° S
Cosmos 1943 Rocket 3.9 04:04:46 10° NW 04:06:33 16° WNW 04:06:33 16° WNW
NOSS 2-2 (C) 3.6 04:09:36 40° S 04:10:56 68° ESE 04:15:27 10° NE
Cosmos 1953 2.2 04:07:01 10° NNW 04:10:58 66° W 04:12:01 45° SSW
Cosmos 389 Rocket 3.5 04:08:53 10° N 04:12:26 47° ENE 04:15:55 10° SSE
Delta 2 Rocket 4.1 04:14:25 27° SSE 04:14:25 27° SSE 04:16:53 10° ESE
Cosmos 1758 Rocket 3.5 04:15:54 39° SW 04:17:19 61° W 04:21:38 10° N
Cosmos 1707 3.4 04:15:03 18° SSE 04:17:43 53° E 04:21:31 10° NNE
Cosmos 1624 Rocket 3.9 04:12:58 10° NNW 04:18:09 66° WSW 04:23:19 10° S
Cosmos 1470 2.8 04:16:09 10° N 04:20:04 78° E 04:23:46 11° S
USA 32 4.2 04:18:56 31° SW 04:21:06 51° W 04:26:13 10° N
Landsat 4 3.7 04:18:36 11° SSE 04:22:10 83° ENE 04:25:55 10° NNW
Cosmos 1727 Rocket 4.0 04:16:46 12° S 04:22:30 82° E 04:28:41 10° N
Cosmos 1758 3.9 04:22:00 10° NNW 04:25:49 38° W 04:26:35 34° WSW
Cosmos-2242 3.0 04:21:38 10° N 04:26:04 86° E 04:30:27 10° S
USA 161 2.0 04:27:46 41° W 04:27:46 41° W 04:30:17 10° NNW
UNKNOWN OBJECT B 3.6 04:26:46 10° N 04:30:25 36° WNW 04:31:32 30° WSW
Cosmos 2056 Rocket 3.6 04:25:57 10° NNW 04:31:09 54° WSW 04:36:14 10° S
DNEPR-1 R/B 4.3 04:30:49 10° NNW 04:34:57 53° NE 04:39:18 10° SE
SL-16 R/B 3.6 04:34:30 22° WSW 04:35:45 23° W 04:40:31 10° NW
Cosmos 921 Rocket 3.2 04:32:29 10° NNW 04:36:51 51° WSW 04:41:12 10° S
Cosmos 374 Rocket 4.3 04:34:46 10° NW 04:38:26 53° WSW 04:42:28 10° SSE
Cosmos 1953 Rocket 4.3 04:36:53 26° WSW 04:38:30 35° WNW 04:42:36 10° N
MOS 1 Rocket 3.5 04:42:08 10° N 04:46:16 46° WNW 04:49:11 19° SW
PSLV R/B 3.8 04:42:45 10° N 04:46:51 83° WNW 04:50:47 11° SSW
Meteor 2-15 4.4 04:40:46 10° SSW 04:46:54 78° W 04:53:04 10° N
CZ-4B R/B 3.1 04:43:40 10° NNE 04:47:57 80° ESE 04:52:22 10° S
MOS 1-B 4.4 04:43:13 10° N 04:48:56 61° WNW 04:54:15 12° SSW
EXPRESS MD2 4.2 04:44:11 10° NW 04:49:05 43° NNE 04:51:50 10° E
Cosmos 1378 3.0 04:48:40 10° S 04:52:24 84° W 04:56:10 10° N
Lacrosse 5 rocket 1.7 04:50:27 20° WSW 04:53:40 68° NW 04:58:19 10° NE
SL-27 R/B 4.3 04:52:50 15° W 04:53:51 17° WNW 04:56:16 10° NNW
Meteor 2-15 Rocket 4.4 04:48:21 10° S 04:54:30 80° W 05:00:41 10° N
IRS-1C Rocket 4.2 04:50:37 10° NNE 04:55:55 78° ESE 05:01:11 10° S
ARIANE 5 R/B 4.3 04:54:22 10° NNW 04:57:32 16° WNW 05:00:03 12° W
Cosmos 1459 Rocket 4.1 04:56:18 10° N 05:02:29 84° E 05:08:43 10° S
CZ-4B DEB 4.3 04:57:00 10° NNE 05:02:33 86° ESE 05:08:01 10° SSW
COSMOS 2455 4.1 05:00:56 10° WNW 05:04:59 19° WSW 05:09:00 10° SSW
Okean O Rocket 1.6 05:01:45 10° N 05:06:11 66° WNW 05:10:32 10° SSW
Cosmos 1452 Rocket 3.5 05:01:13 10° NNW 05:06:25 64° WSW 05:11:35 10° S
ADEOS II 2.1 05:01:28 10° N 05:06:44 76° WNW 05:11:58 10° SSW
Cosmos 1733 4.3 05:05:32 10° NW 05:08:40 25° W 05:11:47 10° SW
Meteor 2-5 Rocket 3.9 05:03:36 10° SSW 05:09:11 60° WNW 05:14:56 10° N
Cosmos 1818 4.1 05:08:43 13° WSW 05:13:27 46° NW 05:18:42 10° NNE
Cosmos 2278 3.7 05:08:52 10° NNW 05:14:34 70° WSW 05:20:13 10° SSE
COSMOS 2487 2.8 05:11:55 10° SW 05:15:16 46° WNW 05:18:45 10° N
Cosmos 1697 Rocket 3.4 05:09:48 10° NNW 05:15:22 59° ENE 05:20:53 10° SE
EO 1 Del DPAF 3.2 05:15:10 10° S 05:18:59 65° WSW 05:22:51 10° NNW
Orbus 7S? 2.4 05:16:04 10° NW 05:19:06 89° ENE 05:21:41 10° SE
SL-24 R/B 4.2 05:15:07 10° N 05:20:03 83° WNW 05:24:22 10° SSW
Cosmos 2369 3.7 05:15:35 10° NNW 05:21:15 63° WSW 05:26:53 10° S
Cosmos 1420 Rocket 4.0 05:19:52 10° NNW 05:25:09 68° WSW 05:30:24 10° S
Tiangong 1 0.7 05:22:38 10° WNW 05:25:28 85° SSW 05:28:19 10° ESE
Cosmos 1048 Rocket 4.0 05:25:47 10° SSW 05:30:56 76° WNW 05:36:04 10° NNE
Meteor 2-1 Rocket 4.2 05:25:51 10° NNW 05:31:30 77° W 05:37:13 10° S
Cosmos 2100 Rocket 4.2 05:27:30 10° NNW 05:33:29 51° W 05:39:23 10° SSW
CENTAUR R/B 3.6 05:26:50 10° NW 05:34:07 39° WSW 05:41:43 10° S
